Theta_e
288 289 290 290 290 289 289 290 290 290 289 290 290 291 291 292 292 292 293 293 293 292 292 293 293 293 293 294 295 296 297 297 298 298 299 299 299 300 300 300 300 301 301 301 301 301 302 302 302 302 302 302 303 303 303 304 304 304 304 304 305 305 305 305 305 306 306 306 307 307 307 307 308 308 308 308 308 308 308 308 307 307 307 307 308 307
288 288 289 290 289 289 289 290 290 290 289 290 290 290 291 291 291 292 292 293 293 293 292 293 293 293 293 294 295 296 296 297 297 298 298 299 299 300 300 300 300 301 301 301 301 302 302 302 302 302 302 302 303 303 303 303 303 303 303 303 304 304 304 304 304 305 305 305 306 306 307 307 307 307 307 307 307 307 307 307 307 306 306 307 307 307
287 287 288 289 289 289 288 289 290 290 290 290 291 291 291 291 291 291 291 292 292 293 293 293 293 293 293 294 295 296 296 297 297 298 298 299 299 300 300 300 300 301 301 301 301 301 302 302 302 302 302 302 302 302 302 303 303 303 303 303 303 303 303 303 303 304 304 304 305 305 305 306 306 307 307 307 307 306 306 307 306 306 306 306 307 307
287 287 287 288 289 289 289 290 290 291 291 291 291 291 291 291 291 291 291 292 292 293 293 294 293 293 293 294 295 296 297 297 298 298 298 299 299 299 300 300 300 301 301 301 301 301 301 301 302 302 302 302 302 302 302 302 302 302 302 302 302 302 302 302 302 303 303 303 304 304 304 304 305 305 305 305 306 306 306 306 306 306 306 306 307 307
287 287 288 288 288 289 290 290 291 291 292 291 291 291 291 291 291 292 292 292 293 293 293 293 294 294 294 294 295 296 297 297 298 298 298 299 299 299 300 300 300 300 300 301 301 301 301 301 301 301 301 301 301 301 301 301 301 301 301 301 302 302 302 302 302 302 302 302 303 303 303 303 304 304 304 304 305 305 305 305 305 306 306 306 307 306
287 288 288 288 288 289 290 291 291 291 291 291 291 291 292 292 292 292 292 292 292 293 293 293 294 294 294 294 295 296 297 297 298 298 298 298 299 299 299 300 300 300 300 300 300 300 301 301 301 301 301 301 301 301 301 301 301 301 301 301 301 301 302 302 302 302 302 302 302 302 303 303 303 303 303 303 304 304 304 304 305 305 306 306 306 306
287 288 289 289 289 289 290 290 291 291 291 290 291 291 292 292 292 292 292 292 292 293 293 293 294 294 294 295 295 296 296 297 297 298 298 298 298 298 299 299 299 299 300 300 300 300 300 300 300 301 301 301 301 301 301 301 301 301 301 301 302 302 302 302 302 302 302 302 302 302 302 302 302 303 303 303 303 303 303 303 304 304 305 305 305 306
287 288 289 288 289 289 289 290 291 291 291 290 290 290 290 291 292 292 293 293 293 293 293 293 293 294 294 295 295 296 296 296 296 296 297 297 298 298 298 299 299 299 299 300 300 300 300 300 300 301 301 301 301 301 301 301 301 301 301 301 301 301 301 301 301 301 301 302 302 302 302 302 302 302 302 302 302 303 303 303 303 304 304 305 305 305
287 287 288 288 288 288 288 289 290 291 292 291 290 289 289 290 290 291 292 292 293 293 293 292 293 293 294 295 295 296 296 296 296 296 296 296 297 297 298 298 299 299 299 299 300 300 300 300 300 300 301 301 301 301 301 301 301 301 301 301 301 301 301 301 301 301 301 301 301 301 301 301 302 302 302 302 302 302 302 302 303 303 303 304 304 304
287 287 287 288 289 289 288 288 290 292 292 292 291 290 290 289 289 289 290 290 291 292 293 292 292 292 293 294 295 295 296 296 296 297 297 297 297 297 298 298 298 298 299 299 299 300 300 300 300 300 300 300 300 300 300 300 300 300 300 300 300 300 300 300 300 300 300 300 300 300 301 301 301 301 301 301 301 301 301 301 302 302 302 302 303 303
287 288 288 288 289 289 289 289 290 291 292 291 291 291 290 290 289 289 288 289 290 291 292 292 292 292 292 293 294 295 295 295 296 296 297 297 297 298 297 297 297 298 298 299 299 299 299 299 299 299 299 299 299 300 299 299 299 299 299 299 299 299 299 299 299 300 300 300 300 300 300 300 300 300 300 300 300 300 301 301 301 301 301 301 302 302
287 288 288 288 289 289 289 290 291 291 291 290 290 289 290 291 291 290 288 288 289 290 291 292 293 293 293 293 294 294 295 294 294 295 296 296 296 296 296 296 296 297 297 297 298 298 298 298 298 298 299 299 299 299 299 299 299 299 299 299 299 299 299 299 299 299 299 299 299 300 300 300 300 300 300 300 300 300 300 300 300 300 301 301 301 301
288 288 288 289 289 289 289 289 289 289 290 289 289 288 289 290 291 291 289 289 290 290 291 291 292 293 294 294 294 294 294 294 294 294 295 295 295 295 295 295 295 295 296 295 296 296 297 297 297 297 298 298 298 298 298 298 298 298 299 299 299 299 299 299 299 299 299 299 299 299 299 299 299 299 299 299 299 299 299 300 300 300 300 300 300 300
288 288 288 288 288 288 289 288 288 288 289 290 290 290 290 291 291 291 290 290 291 291 291 291 291 292 293 294 294 295 294 294 294 294 294 294 295 295 295 294 294 294 294 294 295 295 296 296 296 296 297 297 297 297 298 298 298 298 298 298 298 298 298 298 298 298 299 299 299 299 299 299 299 299 299 299 299 299 299 299 299 299 299 300 300 300
288 288 288 288 288 288 289 289 289 289 290 291 292 292 292 292 291 291 290 290 291 292 292 291 291 291 292 293 294 295 295 294 294 293 293 294 295 296 295 294 294 294 294 294 294 295 296 296 295 296 296 296 296 297 297 297 297 298 298 298 298 298 298 298 298 298 298 298 299 299 299 299 299 299 299 299 299 299 299 299 299 299 299 299 299 299
288 287 286 286 287 288 289 289 289 290 291 292 293 292 291 291 291 291 290 290 291 291 291 289 289 289 291 293 295 295 295 294 293 292 292 293 294 295 296 294 293 293 294 293 294 294 295 295 295 295 295 295 296 296 296 297 297 297 297 297 297 298 298 298 298 298 298 298 298 298 299 299 299 299 299 299 299 299 299 299 299 299 299 299 299 299
287 287 287 287 287 288 290 290 291 291 292 292 292 292 291 291 291 291 290 290 290 290 289 288 287 287 288 291 294 295 295 293 292 292 292 292 293 295 296 294 293 292 293 293 294 294 294 294 294 295 295 295 296 296 296 296 297 297 297 297 298 298 298 298 298 298 298 298 298 298 298 299 299 299 299 299 299 299 299 299 299 299 299 299 299 299
288 288 288 288 288 289 290 291 291 292 292 291 291 291 291 291 291 291 290 290 290 289 289 288 288 287 288 289 292 294 296 294 292 292 291 291 292 294 296 294 293 293 293 293 294 294 294 295 294 295 295 296 296 296 296 297 297 297 297 298 298 298 298 298 298 298 298 298 298 298 298 298 299 299 299 299 299 299 299 299 299 299 299 299 299 299
289 289 289 288 289 289 290 291 291 292 291 291 291 291 291 291 291 290 290 290 290 289 289 288 288 289 289 290 292 294 296 294 293 291 290 290 291 293 294 294 294 293 293 293 294 294 295 295 295 296 296 296 296 296 297 297 297 297 297 298 298 298 298 298 298 298 298 298 298 298 298 298 298 298 299 299 299 299 299 299 299 299 299 299 299 299
289 289 289 289 289 289 289 290 291 292 292 292 292 291 290 290 290 290 290 290 290 290 289 289 289 289 290 290 291 292 294 293 292 291 290 289 290 292 294 294 293 293 293 293 294 295 295 295 296 296 296 296 296 296 297 297 297 297 297 298 298 298 298 298 298 298 298 298 298 298 298 298 298 298 299 299 299 299 299 299 299 299 299 299 299 299
289 289 290 290 290 289 289 290 292 293 293 293 292 291 290 290 289 289 289 290 290 289 290 289 289 290 290 290 290 292 293 293 291 290 289 289 290 291 293 293 293 292 292 293 294 295 295 296 296 295 296 296 296 296 297 297 297 297 297 297 298 298 298 298 298 298 298 298 298 297 297 298 298 298 298 298 298 298 298 298 299 299 299 299 299 299
288 289 290 290 290 290 290 291 292 293 294 293 291 290 290 289 289 289 290 289 289 289 289 289 290 290 291 290 291 292 293 292 291 290 289 288 289 290 292 293 293 292 292 293 294 295 295 295 295 295 296 296 296 296 297 297 297 297 297 297 298 298 298 298 298 298 298 298 297 297 297 298 298 298 298 298 298 298 298 298 298 298 298 299 299 299
289 289 290 291 291 291 291 292 293 294 294 293 292 291 291 290 290 289 289 289 289 289 289 290 291 291 291 291 291 292 292 292 292 291 289 287 287 289 292 292 292 292 291 292 293 294 295 295 295 295 296 296 296 296 296 297 297 297 297 297 298 298 298 298 298 298 298 297 297 297 297 297 297 298 298 298 298 298 298 298 298 298 298 298 298 298
291 291 291 291 291 292 292 293 293 294 294 293 292 292 292 291 290 289 289 289 290 290 290 290 289 289 289 289 289 290 291 292 292 291 289 287 287 289 291 292 291 291 291 292 293 294 294 294 295 295 296 296 296 296 296 296 297 297 297 297 297 298 298 297 297 297 297 297 297 297 297 297 297 298 298 298 298 298 298 298 298 298 298 298 298 298
292 292 292 292 293 294 294 294 294 295 294 293 293 293 292 292 291 291 291 291 290 290 289 288 287 286 287 287 287 288 289 291 291 290 289 287 287 289 290 290 290 289 290 291 292 293 293 293 294 295 295 295 295 296 296 296 296 297 297 297 297 297 297 297 297 297 297 297 297 297 297 297 297 297 298 297 297 298 298 298 298 298 297 297 298 297
294 294 294 295 295 296 296 296 296 296 295 294 293 292 292 292 291 290 289 288 288 287 286 285 284 284 285 286 286 286 288 289 290 290 289 287 286 287 288 289 289 288 289 290 292 292 292 292 293 294 294 295 295 295 295 296 296 296 297 297 297 297 297 297 297 297 297 297 297 297 297 297 297 297 297 297 297 297 297 297 297 297 297 297 297 297
295 296 296 296 296 296 296 296 296 295 295 293 292 291 291 291 289 287 286 286 286 286 284 283 283 283 284 284 284 285 287 288 289 289 289 287 285 285 286 288 289 289 289 290 291 292 292 292 292 293 293 294 295 295 295 295 296 296 296 296 297 297 297 297 297 297 297 297 297 297 297 297 297 297 297 297 297 297 297 297 297 297 297 296 296 296
295 295 295 295 295 295 295 295 294 293 292 291 291 291 290 289 287 285 284 285 286 285 284 283 282 282 282 283 284 285 286 287 288 288 288 287 285 284 286 288 289 289 289 289 290 291 291 291 291 292 293 294 294 294 295 295 295 296 296 296 296 297 297 296 296 296 297 297 297 297 297 297 297 297 297 297 297 297 297 297 296 296 296 296 296 296
294 295 294 294 294 294 294 292 291 290 290 290 290 290 290 288 286 285 285 285 285 284 283 282 282 282 282 282 283 284 285 285 287 288 289 287 285 285 287 288 288 288 287 287 287 287 288 289 290 291 292 293 294 294 294 295 295 295 296 296 296 296 296 296 296 296 296 296 296 296 296 296 297 297 296 296 296 296 296 296 296 296 296 295 295 295
293 293 292 292 292 291 290 289 289 289 289 289 290 290 289 288 287 286 286 286 285 284 282 282 282 282 282 282 282 282 282 284 287 289 289 286 285 285 286 286 286 286 286 285 284 284 284 287 289 290 291 292 292 292 293 293 294 294 294 295 295 295 295 295 295 296 296 296 296 296 296 296 296 296 296 296 296 296 296 296 296 295 295 295 295 294
290 290 289 289 289 288 288 288 288 288 288 288 288 288 288 288 287 287 286 286 285 284 282 282 282 282 282 281 280 279 280 284 287 289 289 285 284 284 285 284 285 285 286 285 283 282 282 285 288 290 290 289 289 289 290 291 292 292 292 293 293 293 294 294 295 295 295 295 295 296 296 296 296 296 296 296 296 295 295 295 295 295 294 294 293 293
287 287 286 286 286 286 286 286 286 286 286 287 286 287 286 287 287 286 286 286 285 284 283 282 282 282 282 281 280 279 280 283 286 288 288 285 284 284 285 284 284 285 286 286 285 283 282 283 286 288 288 288 288 289 290 290 291 291 291 291 291 292 293 293 294 294 294 295 295 295 295 295 295 295 295 295 295 295 295 295 295 294 294 293 293 292
286 285 285 285 285 285 285 285 285 285 285 285 285 285 286 286 286 286 286 286 285 285 284 283 282 281 281 281 281 281 281 283 285 287 287 285 284 284 285 284 284 284 285 286 286 285 283 283 283 285 286 287 288 289 289 290 290 291 291 290 290 291 292 293 293 293 294 294 294 294 294 295 295 295 295 295 295 294 294 294 294 294 293 293 292 292
285 285 285 285 285 284 285 284 284 284 284 284 284 285 285 286 286 286 286 286 286 285 284 283 282 281 281 281 281 281 282 283 285 287 287 286 285 284 285 285 284 285 285 285 284 284 283 283 283 283 283 285 286 288 288 289 290 290 290 290 290 290 291 292 292 292 293 293 293 294 294 294 294 294 294 294 294 294 293 293 293 293 293 292 292 291
284 284 284 284 284 284 284 284 284 284 284 284 284 285 285 285 285 285 285 285 285 285 285 284 283 282 282 281 281 281 281 283 285 287 287 286 285 284 284 284 284 284 284 284 283 283 282 283 283 283 282 283 284 285 287 288 289 289 289 289 289 290 290 291 291 291 291 292 292 292 292 292 293 293 293 293 293 292 292 292 292 292 292 292 292 292
283 283 283 283 283 283 283 284 284 284 284 284 284 285 285 285 285 285 285 285 285 285 285 285 285 284 284 283 282 281 282 284 285 287 287 286 285 284 283 283 283 284 283 283 283 283 282 282 282 283 282 282 282 283 285 287 288 288 288 289 289 290 290 290 290 290 290 290 290 290 291 290 291 291 291 291 291 291 291 291 291 292 292 292 292 291
282 283 283 283 283 283 283 284 284 284 284 284 284 284 284 284 285 285 285 285 285 285 285 285 286 286 285 285 284 284 284 284 286 286 286 286 285 284 283 283 284 284 284 283 283 283 282 282 282 282 282 281 281 282 284 285 286 287 288 289 289 290 290 290 289 289 288 288 288 289 289 289 289 290 290 290 290 290 290 291 291 291 291 291 291 291
282 283 283 284 284 284 283 283 283 283 283 283 284 284 284 284 285 285 285 285 285 285 285 285 285 285 286 286 286 285 285 286 286 286 286 286 286 285 284 283 284 284 284 284 283 283 282 281 281 280 280 281 282 283 284 284 285 285 286 288 289 289 289 289 289 288 288 288 288 288 289 289 289 289 289 289 289 289 289 290 290 290 290 290 290 290
282 282 283 284 284 284 283 283 283 283 283 283 284 284 284 284 285 285 285 285 285 285 285 285 285 285 285 285 286 286 286 286 286 286 286 286 286 285 285 284 284 284 285 284 284 283 282 281 280 280 280 281 282 283 284 284 284 285 286 287 287 288 288 289 289 288 288 287 288 288 288 289 289 288 287 287 287 288 288 288 289 289 289 289 289 289
282 283 283 283 283 283 283 283 283 283 283 284 284 284 284 284 284 285 285 285 285 286 286 286 286 285 285 286 286 286 286 286 286 286 286 286 286 285 285 284 284 284 284 284 284 283 282 282 281 281 281 281 282 282 283 284 284 285 286 285 286 287 288 289 289 288 288 287 287 287 288 288 287 287 286 286 286 287 288 288 288 288 288 288 288 288
282 282 282 283 283 283 283 283 283 284 284 284 284 284 284 284 284 283 284 284 285 285 285 285 285 285 285 285 286 286 286 286 286 286 286 286 285 285 285 284 284 284 284 284 284 283 283 282 282 282 282 282 283 283 283 284 285 286 286 285 286 287 288 289 289 289 288 287 287 287 287 287 287 286 285 286 286 286 287 287 287 287 288 288 288 287
282 282 282 282 282 282 282 283 284 284 284 284 283 283 283 283 283 283 282 282 283 283 284 283 283 283 283 284 285 286 286 286 287 287 286 286 285 285 285 285 284 284 284 284 283 283 283 283 282 282 282 283 283 282 283 284 285 286 286 286 286 287 288 289 289 288 286 286 286 286 286 286 286 286 286 286 286 285 285 286 286 286 287 288 288 288
281 281 281 282 282 282 283 283 284 284 284 283 283 283 283 283 283 282 282 282 282 282 283 283 283 282 282 282 283 284 286 286 287 287 286 286 285 285 285 285 285 284 284 283 283 283 284 284 284 283 283 284 283 283 282 283 284 285 285 286 286 286 285 287 287 285 284 284 284 284 285 285 286 286 286 285 285 284 284 284 285 286 287 288 288 288
281 281 282 282 282 283 283 283 283 283 283 282 282 282 283 283 283 283 282 282 282 283 283 283 283 282 281 281 282 283 284 286 287 287 287 287 287 286 286 286 286 285 285 284 283 283 283 284 284 284 284 284 284 283 283 283 283 284 285 286 286 285 285 286 286 285 283 284 284 284 284 284 284 284 284 283 283 283 283 283 284 285 286 287 288 287
281 281 282 282 282 282 282 282 282 282 282 282 282 282 283 283 283 283 282 282 282 283 283 283 282 281 281 281 281 282 282 284 285 285 286 287 287 287 287 287 286 286 286 285 284 284 283 283 283 284 285 285 284 283 283 283 283 283 284 285 286 286 286 287 287 286 284 284 284 284 283 284 284 284 283 284 283 283 283 283 284 284 285 286 286 286
281 281 281 282 282 282 282 282 282 281 281 281 281 282 283 283 283 283 283 283 282 282 283 282 282 280 280 280 280 281 281 282 282 283 284 285 286 287 287 287 287 286 286 285 285 285 285 284 284 284 284 284 283 283 283 283 283 283 284 285 286 286 287 287 287 285 284 284 283 283 282 283 283 284 284 284 284 284 283 283 283 284 284 284 285 285
281 281 281 281 281 281 281 281 281 281 281 281 281 282 283 283 283 283 283 283 282 282 282 281 281 280 279 279 280 280 280 280 281 282 283 284 285 286 287 287 287 287 286 286 286 286 286 285 285 285 284 283 282 282 283 284 284 284 284 285 285 286 286 286 285 284 283 283 283 282 282 283 283 284 284 284 284 284 284 283 283 283 283 284 284 285
281 281 281 281 281 281 281 281 281 281 280 281 281 282 283 283 283 283 283 282 282 281 281 280 280 279 279 280 280 280 280 280 281 282 282 283 284 285 286 286 287 287 287 287 287 286 286 286 286 286 285 283 282 282 283 284 284 285 285 285 285 285 285 286 284 283 283 283 283 283 283 284 284 284 284 284 284 284 285 285 284 283 283 283 284 284
281 281 281 280 280 280 280 280 280 281 281 281 281 282 283 284 284 283 282 281 281 281 280 280 280 279 279 280 280 281 281 281 282 282 282 283 284 284 284 285 285 286 286 286 287 287 287 287 287 287 286 285 284 283 283 284 285 285 286 286 285 285 285 285 284 283 282 282 283 283 284 284 284 284 285 284 284 284 284 284 284 284 284 283 283 284
281 280 281 280 280 280 280 280 280 280 281 281 281 282 283 283 282 282 281 281 281 280 280 280 279 279 279 279 280 281 281 281 281 282 282 283 283 283 284 284 284 284 284 285 285 285 286 286 286 287 288 288 286 285 284 285 285 286 286 285 285 285 285 284 283 282 282 282 283 283 283 284 284 284 285 284 284 283 283 283 284 284 285 284 284 284
280 280 280 280 280 280 280 280 280 280 281 281 281 282 282 281 281 281 281 280 280 280 279 279 279 279 279 279 280 280 280 280 281 281 282 282 283 283 283 283 283 282 282 282 282 283 283 283 284 285 287 289 289 288 286 286 286 285 285 284 284 284 284 283 283 283 283 283 283 283 283 283 283 284 284 284 283 282 282 282 283 284 285 285 285 285
Wind_Speed
7 7 8 10 10 10 10 12 13 12 11 10 10 9 9 10 10 11 13 13 13 13 12 12 12 13 15 17 19 21 22 22 23 23 23 23 22 22 22 21 21 21 21 20 20 20 20 20 20 20 20 20 20 20 20 20 20 20 20 20 20 20 19 19 19 20 20 20 20 20 20 20 21 21 21 21 21 21 20 17 16 15 15 16 16 17
8 8 8 10 11 11 10 12 12 12 11 11 10 10 10 11 11 10 11 12 12 12 11 11 12 13 15 16 18 20 21 22 22 22 23 22 22 22 22 22 21 21 21 20 20 20 20 20 20 20 20 20 20 20 20 19 19 19 19 19 18 18 18 18 18 18 19 19 19 19 19 20 20 20 20 21 21 20 19 17 16 15 15 15 16 16
8 8 7 8 10 10 10 11 11 11 12 12 11 11 12 13 12 10 9 10 10 11 10 11 11 12 14 15 17 19 20 21 22 22 22 22 22 22 22 22 21 21 21 21 20 20 20 20 20 20 20 20 19 19 19 19 19 18 18 18 18 17 17 17 17 17 17 18 18 18 18 19 19 19 19 19 19 19 19 18 17 16 16 16 16 16
8 8 8 7 8 9 10 10 10 10 10 11 12 12 13 12 11 10 9 10 10 10 10 11 12 12 12 12 14 17 19 20 21 22 22 22 22 22 22 22 22 21 21 21 21 20 20 20 20 20 20 20 19 19 19 19 18 18 18 18 17 17 17 17 17 17 17 17 17 18 18 18 18 18 18 18 18 18 18 17 17 17 16 16 16 16
8 8 8 7 8 8 9 10 10 10 9 10 10 11 11 10 9 9 9 10 10 10 10 11 11 11 10 10 12 15 19 20 21 22 22 22 22 22 22 22 22 21 21 21 20 20 20 20 20 20 19 19 19 19 19 18 18 18 18 18 18 18 18 18 18 18 18 18 18 18 18 18 18 18 18 18 18 17 17 17 17 17 17 16 16 16
8 8 8 7 7 7 8 8 8 8 9 9 9 10 10 9 9 9 9 9 10 10 9 9 10 11 11 11 13 15 18 19 21 21 22 22 22 22 22 21 21 21 21 20 20 20 20 20 19 19 19 19 19 19 18 18 18 18 18 18 18 18 18 18 18 18 18 18 18 18 18 18 18 18 18 18 17 17 17 17 17 17 17 17 17 17
8 8 8 8 7 7 7 7 8 8 8 8 8 8 8 8 9 9 9 9 9 9 9 9 9 10 11 12 13 15 16 17 18 19 20 20 20 20 20 20 20 20 20 20 20 20 19 19 19 19 19 19 18 18 18 18 18 18 18 18 17 17 17 17 17 17 17 17 17 17 18 18 18 18 18 18 18 17 17 17 17 17 17 18 18 18
9 8 8 8 7 7 7 7 8 8 8 7 7 7 8 8 8 9 10 10 10 9 9 9 9 9 10 10 11 12 12 13 13 14 15 16 17 17 18 18 19 19 19 19 19 19 19 19 19 19 19 18 18 18 18 17 17 17 17 17 17 17 17 16 16 16 16 16 16 17 17 17 17 17 17 18 18 18 17 18 18 18 18 18 19 19
10 10 9 9 8 8 7 7 8 8 8 7 7 7 8 9 9 9 9 9 9 8 8 8 9 9 9 10 10 10 10 10 10 10 11 11 12 13 15 16 17 18 18 19 19 19 19 19 19 19 19 18 18 18 17 17 17 17 16 16 16 16 16 15 15 15 15 16 16 16 16 16 16 16 17 17 17 18 18 18 18 18 19 19 19 20
11 11 10 9 8 7 7 8 8 8 9 8 7 7 8 9 9 9 9 9 8 8 7 8 9 9 9 9 9 9 9 10 11 12 13 13 14 15 15 15 15 16 18 18 19 19 19 19 19 19 19 18 18 18 17 17 16 16 16 15 15 15 15 15 15 15 15 15 15 15 15 15 16 16 16 16 17 17 17 18 18 18 19 19 19 20
10 10 9 8 7 7 7 8 8 8 8 8 7 7 7 8 8 8 9 9 9 8 7 7 8 8 9 8 8 8 8 9 9 11 12 14 15 16 16 16 16 16 18 18 18 19 19 19 19 19 18 18 18 17 17 16 16 16 15 15 15 14 14 14 14 14 14 15 15 15 15 15 15 16 16 16 16 16 17 17 17 18 18 19 19 19
9 8 7 6 6 6 7 7 7 7 6 6 7 7 7 7 7 7 8 9 9 9 9 8 7 8 8 8 8 8 8 8 8 8 8 9 10 11 11 11 12 13 14 15 15 16 17 17 17 17 17 17 17 17 17 16 16 15 15 15 15 14 14 14 14 14 14 15 15 15 15 15 15 16 16 16 16 16 16 16 17 17 17 18 18 19
7 6 5 6 6 6 6 6 6 6 6 6 7 7 7 6 6 6 6 8 9 9 9 8 8 8 8 8 8 7 7 7 7 7 7 7 7 7 7 7 7 8 8 9 9 10 13 14 15 15 15 16 16 16 16 16 16 16 16 15 15 15 15 15 14 14 14 15 15 15 15 15 15 16 16 16 16 16 16 16 16 17 17 17 17 18
6 5 5 6 6 6 6 6 7 7 7 7 7 7 7 6 6 6 7 8 9 9 8 8 8 8 7 8 8 7 7 7 7 7 7 7 6 6 6 6 6 7 7 7 7 8 9 10 10 11 13 14 14 15 15 15 16 16 16 16 16 16 15 15 15 15 15 15 15 15 15 15 15 15 16 16 16 16 16 16 16 16 17 17 17 17
5 5 6 6 6 5 6 7 7 7 7 7 7 7 7 7 7 7 8 8 8 8 7 8 8 8 6 6 6 7 7 6 6 6 7 7 6 6 6 6 6 6 6 7 7 8 9 8 8 8 9 11 12 13 14 15 16 17 17 17 17 16 16 16 15 15 15 15 15 15 15 15 15 16 16 16 16 16 16 16 16 16 17 17 17 17
6 7 8 8 8 7 7 7 6 6 6 6 6 7 7 7 7 7 8 8 8 6 6 6 7 7 6 6 6 6 6 5 5 6 7 7 7 6 6 6 6 7 7 7 7 7 7 7 7 8 8 11 13 14 15 16 17 17 17 18 17 17 17 16 15 15 15 15 15 15 15 15 16 16 16 16 16 16 16 16 16 17 17 17 17 17
8 9 9 9 8 8 7 6 5 6 6 6 6 7 7 7 7 6 6 6 5 4 4 5 5 5 4 4 4 4 3 3 4 5 7 8 8 7 6 6 6 7 7 7 7 7 7 7 7 7 7 10 13 15 16 17 17 18 18 18 18 17 17 16 16 15 15 15 15 15 15 15 16 16 16 16 17 17 17 17 17 17 17 17 17 18
8 7 7 7 7 7 6 6 6 6 6 6 6 6 7 7 6 6 5 5 5 5 5 5 4 4 4 4 3 3 3 4 5 6 7 8 8 7 6 5 6 7 8 8 8 7 7 7 7 7 8 11 14 15 16 17 18 18 18 18 18 18 17 17 16 15 15 15 15 15 15 16 16 16 16 17 17 17 17 17 17 17 17 17 18 18
7 7 7 8 8 7 6 6 6 6 6 6 6 6 7 7 6 6 6 6 6 6 6 6 5 4 3 4 4 5 5 5 6 7 7 8 8 8 7 6 6 7 8 8 8 8 7 7 8 10 11 13 15 16 17 18 18 18 19 19 18 18 18 17 16 16 15 15 15 15 15 16 16 16 16 17 17 17 17 17 17 17 17 17 18 18
9 9 8 8 8 7 6 5 6 6 6 6 7 7 7 7 7 7 7 7 7 6 6 6 5 4 3 4 5 6 6 6 6 6 7 8 9 8 8 7 7 8 8 8 8 7 7 7 8 9 11 13 15 16 17 18 18 19 19 19 19 18 18 17 17 16 16 15 15 15 16 16 16 16 16 16 17 17 17 17 17 17 17 17 18 18
9 8 7 7 7 7 6 6 6 7 8 8 8 8 8 8 8 8 7 6 6 6 5 4 4 4 4 5 6 7 7 7 6 5 5 6 7 8 7 7 7 8 9 8 8 7 7 7 7 7 8 11 14 15 16 17 18 18 19 19 19 18 18 18 17 16 16 15 15 15 16 16 16 16 16 16 16 17 17 17 17 17 17 17 17 18
9 8 8 7 8 8 8 7 8 9 10 10 9 8 8 8 8 8 7 6 5 4 3 3 4 5 6 6 7 7 7 6 6 5 4 5 7 8 7 6 7 8 9 8 8 7 7 6 6 6 8 11 13 15 16 17 18 18 18 18 18 18 18 18 17 17 16 16 16 16 16 16 16 16 16 16 16 16 16 17 17 17 17 17 17 17
9 9 9 9 9 9 9 8 8 8 9 9 9 8 6 7 7 6 5 4 4 4 4 5 6 7 7 7 7 7 7 6 5 5 4 6 7 8 6 6 7 8 8 8 8 7 7 6 6 7 8 11 13 15 16 17 17 18 18 18 18 18 18 18 17 17 16 16 16 16 16 16 16 16 16 16 16 16 16 16 16 17 17 17 17 17
10 10 10 9 9 8 8 8 7 7 7 7 7 6 6 5 5 4 4 4 4 5 5 6 7 7 7 7 7 6 6 5 5 4 4 5 6 7 6 6 7 8 9 8 8 8 8 7 7 7 7 10 12 14 15 16 17 17 18 18 18 18 18 18 18 17 16 16 16 16 16 16 16 16 16 16 16 16 16 16 16 16 16 17 17 17
9 9 9 9 10 10 11 10 10 9 8 7 6 5 4 4 4 4 4 5 5 5 6 6 7 7 6 6 6 6 5 4 4 4 4 4 6 7 6 6 7 8 9 8 8 8 8 8 7 7 7 8 11 13 14 16 16 17 17 17 18 18 19 18 18 17 17 16 16 16 16 16 16 16 16 16 16 16 16 16 16 16 16 16 16 17
13 13 13 15 17 19 20 19 18 16 14 10 7 5 4 4 4 5 5 5 5 5 6 7 7 7 6 5 5 5 4 4 4 4 4 4 5 6 6 6 7 8 9 8 8 8 8 8 8 7 7 7 9 11 13 15 16 16 17 17 18 18 19 18 18 17 17 16 16 16 16 16 16 16 15 15 15 15 15 15 15 15 15 16 15 15
21 22 23 23 23 23 23 21 19 17 16 13 11 9 7 6 5 6 6 5 5 5 6 7 7 7 7 6 5 5 4 3 3 4 4 5 6 7 6 6 6 7 8 7 7 7 8 8 8 8 7 6 6 8 12 14 15 16 17 17 18 18 19 18 18 17 17 16 16 16 16 16 15 15 15 15 15 15 15 15 15 15 15 14 13 12
23 23 23 23 22 21 19 16 14 12 12 13 14 13 10 6 5 6 7 6 6 6 7 7 8 7 6 6 6 5 5 4 4 4 4 4 5 6 6 5 4 5 5 6 7 7 9 9 9 9 8 7 6 7 9 12 14 15 16 17 17 18 18 18 17 17 16 16 16 16 15 15 15 15 14 14 14 14 14 14 14 14 13 11 9 7
19 20 20 19 18 16 13 10 9 9 10 11 11 10 7 4 4 5 6 5 5 6 7 7 7 7 7 7 6 6 5 5 5 5 4 4 5 5 5 4 4 4 5 5 6 7 8 8 8 8 8 8 6 6 6 9 10 12 13 15 15 16 16 16 16 16 16 15 15 15 15 15 14 14 14 14 13 13 13 14 13 12 10 8 6 6
12 12 12 11 10 10 8 7 7 8 9 9 9 8 5 3 3 4 4 4 5 6 7 7 7 7 6 6 6 6 5 4 3 2 2 4 4 4 4 5 5 5 5 5 5 5 6 6 6 6 6 6 5 4 4 5 6 6 8 10 11 12 14 14 15 15 15 15 14 14 14 14 14 13 13 13 13 13 13 13 12 9 6 6 5 5
7 6 5 6 6 7 7 7 7 7 8 8 7 6 4 3 3 3 4 4 4 5 6 7 7 7 6 6 5 5 4 3 2 1 2 3 4 5 5 6 6 6 5 5 4 5 5 4 3 3 2 3 3 3 3 3 3 4 4 5 6 8 11 12 13 13 13 13 13 13 13 13 13 13 12 12 12 12 12 12 10 8 6 5 5 5
4 4 4 4 5 5 5 6 6 6 5 5 4 4 4 3 3 3 3 4 4 5 6 6 7 7 6 6 5 5 4 4 4 4 4 4 4 5 5 6 6 6 5 5 5 4 4 3 3 2 3 3 3 3 3 3 3 4 4 4 5 6 9 10 11 11 11 11 12 12 12 12 12 12 12 11 11 11 11 11 10 8 6 5 5 5
3 3 3 4 4 4 4 5 5 5 4 4 3 3 3 3 3 4 4 4 4 4 5 6 6 6 6 6 6 6 5 5 5 6 6 5 4 4 4 5 6 5 4 4 5 5 5 4 4 4 5 5 5 5 4 4 4 4 4 5 5 5 7 8 8 8 8 8 9 9 10 11 11 11 11 10 10 10 10 9 9 8 6 5 4 5
4 4 4 4 4 4 5 5 5 4 4 3 3 3 3 3 3 4 4 4 4 4 5 5 6 6 6 6 6 6 6 5 6 6 6 5 4 4 5 5 6 6 5 5 5 5 5 6 5 5 5 5 5 5 5 4 4 4 4 4 5 5 5 6 6 6 6 6 6 6 6 7 8 8 8 8 8 8 8 8 8 7 7 6 5 5
5 5 5 5 5 5 5 5 5 4 4 4 3 3 3 3 3 4 4 4 4 4 4 5 5 5 6 6 6 6 6 6 6 7 6 6 5 5 5 6 6 6 6 6 6 5 5 6 6 6 5 5 5 5 5 5 4 4 3 4 5 5 5 5 5 5 5 5 4 4 4 4 5 5 6 6 6 7 7 7 7 7 8 7 7 6
5 5 5 5 5 5 5 5 4 4 4 3 3 3 3 3 4 4 4 4 5 5 5 5 5 6 6 6 6 7 7 7 7 7 7 6 5 5 5 5 6 6 6 7 6 6 5 6 6 7 7 6 5 5 5 4 4 3 3 4 4 5 5 5 5 4 4 4 4 4 4 4 4 4 4 5 6 6 6 7 7 7 7 8 7 7
5 5 5 5 4 4 4 4 4 4 4 4 3 3 4 4 4 4 4 4 5 5 6 6 6 7 7 7 7 7 7 7 7 8 8 7 6 6 5 5 6 6 6 7 6 6 6 6 7 7 6 6 5 5 4 5 5 5 5 4 4 4 4 4 4 4 4 5 5 5 4 4 4 4 4 5 5 5 6 6 6 6 6 7 7 7
5 5 5 5 4 4 3 3 4 4 4 4 4 4 4 5 5 5 5 5 5 6 6 5 6 7 9 9 9 9 9 9 10 10 10 9 7 7 6 6 6 6 6 6 6 6 6 7 7 6 5 6 6 6 6 6 6 6 6 5 5 4 5 4 4 4 4 5 5 5 5 5 4 4 3 3 3 3 3 4 4 4 5 5 5 6
5 5 5 5 4 4 3 4 4 4 4 5 5 5 5 5 5 5 5 5 5 6 6 6 6 6 8 9 10 11 11 11 11 11 10 9 8 7 7 7 7 7 7 6 6 6 7 6 6 6 6 6 6 6 6 6 6 6 7 6 6 5 5 5 5 4 4 5 5 6 6 5 4 3 3 2 2 2 3 3 3 2 2 2 3 5
5 5 5 5 5 4 4 5 5 5 5 5 5 5 5 5 5 5 5 5 5 6 7 7 7 6 7 8 9 10 10 9 9 10 9 8 8 7 7 7 7 7 7 6 6 6 7 7 7 7 7 6 6 6 6 6 6 6 7 6 5 5 6 5 5 5 4 5 5 5 5 4 3 3 3 2 2 2 3 2 2 2 1 1 2 3
5 5 5 5 5 5 5 5 5 5 5 5 4 4 4 4 4 4 4 5 5 5 5 6 6 6 6 7 7 8 9 9 9 9 8 8 8 8 7 7 7 7 7 7 7 7 7 7 8 8 8 8 8 8 8 7 7 8 8 6 6 6 6 6 5 4 4 4 4 5 5 4 4 3 3 3 2 2 2 2 2 2 2 1 2 2
5 5 5 5 5 5 5 5 5 5 5 4 4 4 4 4 4 4 5 5 5 4 4 4 5 5 6 6 7 7 7 7 8 8 8 9 8 8 7 7 7 7 7 7 7 7 7 7 8 8 8 8 7 7 7 7 8 8 8 7 7 7 7 6 4 3 3 3 4 4 5 4 4 3 3 2 2 1 1 2 2 3 3 2 2 2
4 5 5 5 5 5 5 5 5 4 4 4 4 4 4 4 4 5 5 5 5 5 5 5 5 5 6 6 6 6 5 5 6 7 7 7 7 8 7 8 7 7 7 7 7 7 8 8 8 8 8 7 7 7 7 7 8 8 8 8 7 6 4 3 2 1 2 3 3 3 4 4 3 2 2 1 1 1 1 2 3 3 3 2 2 2
5 5 5 5 5 5 5 4 4 4 4 4 5 5 5 5 5 5 5 5 5 5 5 5 5 6 6 6 6 6 5 5 5 5 6 6 7 7 7 8 8 8 7 7 6 6 7 7 7 7 7 7 7 7 7 7 7 7 7 7 7 6 5 4 2 1 2 3 3 3 3 3 2 1 1 1 1 1 1 2 2 3 3 2 2 2
5 5 5 4 4 4 4 4 4 4 4 4 5 5 5 5 5 5 5 5 5 5 5 5 5 5 5 5 6 6 5 5 5 5 5 6 8 9 8 8 8 8 8 7 7 7 6 6 6 6 6 6 6 7 7 7 7 7 7 7 7 7 7 6 4 3 2 3 2 2 2 2 2 2 1 1 1 1 1 2 2 2 2 2 2 2
4 4 5 4 4 4 4 4 4 4 4 5 5 5 5 5 5 5 5 5 5 5 5 5 5 5 5 5 6 6 6 6 6 5 5 5 5 6 6 6 7 7 6 7 7 7 7 6 6 6 5 6 6 7 7 7 7 7 7 7 7 6 6 6 4 3 2 2 2 2 2 2 2 2 2 1 1 1 1 1 1 1 1 1 2 2
5 5 5 4 4 4 4 4 4 4 5 5 5 5 5 5 5 5 4 4 4 5 5 5 5 5 5 6 6 6 6 7 7 6 6 5 5 5 4 5 6 6 6 6 7 7 7 7 7 6 6 6 6 6 7 7 7 7 7 6 6 6 6 5 3 1 1 1 1 2 2 2 2 2 1 1 0 0 0 0 0 1 1 1 2 2
5 5 5 4 4 4 4 4 4 5 5 5 5 5 5 5 4 4 4 4 4 5 5 5 5 5 5 5 6 6 6 7 7 6 6 6 6 6 5 5 5 5 6 6 7 7 7 8 8 8 7 6 6 6 7 7 7 6 6 6 5 5 6 4 2 0 0 1 1 2 2 2 2 2 1 1 0 0 1 1 1 1 1 1 2 2
5 5 5 5 5 5 5 5 5 5 5 5 6 5 5 4 3 4 3 4 4 4 4 5 5 6 6 6 6 6 7 7 6 6 6 6 6 6 6 6 6 6 5 5 5 5 6 7 8 9 8 7 7 7 7 7 6 6 5 5 4 4 4 3 1 1 1 1 1 2 2 1 1 1 1 1 1 0 1 1 1 1 1 1 2 2
5 5 5 5 5 5 5 5 5 5 5 6 6 5 4 2 2 3 3 4 4 5 5 5 6 6 6 6 6 6 6 6 6 6 6 5 6 6 6 7 7 7 7 5 4 3 3 4 5 7 9 10 9 8 7 6 6 5 4 4 3 3 3 2 0 1 1 1 1 1 1 1 1 1 1 1 1 0 0 1 1 1 1 1 1 2
5 5 5 5 5 5 5 5 5 5 6 6 6 5 3 2 2 3 4 4 5 5 5 6 6 6 6 6 6 6 6 6 6 6 6 6 6 6 6 7 7 7 7 6 5 4 3 2 2 3 5 8 9 9 6 5 5 4 3 2 2 2 1 1 0 1 1 1 1 1 1 1 1 1 1 1 1 0 0 1 1 1 1 1 2 3
Wind_Direction
287 290 292 291 291 289 287 287 287 287 286 286 287 288 289 289 288 287 288 288 288 287 287 286 286 287 288 289 289 290 291 292 293 293 293 293 293 293 293 292 292 291 290 289 289 288 287 285 284 283 282 281 281 280 280 280 280 280 280 279 279 279 279 279 279 279 278 278 278 277 277 277 277 277 278 278 279 279 280 281 280 277 275 273 272 271
287 288 288 289 289 287 285 285 285 284 285 285 286 287 288 289 289 289 289 287 286 286 285 285 286 286 287 287 288 289 289 290 291 292 292 292 292 292 292 291 291 291 290 289 289 288 287 286 285 285 284 283 282 281 281 281 281 281 281 280 280 280 280 280 279 279 278 278 277 277 277 277 277 277 278 278 279 281 283 285 283 280 277 275 274 273
290 288 286 287 286 285 285 286 285 284 283 284 284 285 287 288 288 288 288 288 287 285 284 284 285 286 287 287 287 288 288 289 290 290 290 291 291 291 291 291 290 290 290 290 289 289 288 288 287 286 285 284 283 283 282 281 281 281 280 280 279 279 278 278 277 277 276 276 276 275 275 275 276 276 277 278 279 280 282 284 283 282 281 280 279 278
287 287 287 286 284 282 282 285 285 284 282 282 282 283 284 284 284 283 283 284 285 285 285 285 285 285 286 286 285 286 287 287 288 289 289 289 289 290 290 290 290 290 290 290 290 289 289 288 288 287 286 285 284 283 282 281 280 279 279 278 277 276 275 275 274 273 273 273 273 273 273 274 274 275 275 276 277 278 279 280 281 281 281 280 279 278
282 283 285 286 284 282 282 283 284 284 282 281 281 281 280 279 278 280 281 283 285 286 286 286 285 284 284 283 284 285 286 286 287 287 288 288 288 289 289 289 289 290 290 289 289 289 288 288 287 287 286 284 283 282 280 279 278 277 276 276 275 274 273 272 272 271 271 271 271 271 272 272 272 273 274 274 275 275 275 276 277 277 278 277 276 275
279 279 281 281 281 281 283 283 284 284 284 282 280 279 278 277 278 280 282 284 284 285 285 284 284 284 282 282 283 284 285 285 286 286 286 287 287 287 287 288 288 288 288 288 288 287 287 286 286 285 284 283 281 280 279 278 277 276 275 275 274 273 273 272 272 272 272 272 272 271 271 271 272 272 272 273 273 273 273 273 274 274 274 274 274 273
277 276 278 277 277 278 280 280 281 282 282 282 281 280 279 279 279 280 280 281 282 283 283 283 283 282 282 281 282 283 284 284 285 285 285 285 285 285 285 286 286 286 286 286 285 285 284 284 283 283 282 281 281 280 279 278 278 277 277 276 276 276 275 275 275 275 275 275 275 274 273 273 273 272 272 273 272 272 272 271 271 271 272 272 272 272
277 276 274 276 276 276 274 274 275 277 278 280 283 284 285 284 282 281 281 281 281 282 283 283 283 282 281 282 283 283 283 284 285 285 285 284 284 284 284 284 284 284 284 284 283 283 283 283 282 282 282 282 282 281 281 280 280 280 279 279 279 280 280 280 280 280 280 280 279 279 278 277 276 275 274 274 273 273 272 271 271 271 270 270 271 271
275 276 274 273 274 276 276 273 273 275 278 279 281 283 287 287 287 286 286 284 283 282 282 283 284 284 284 285 285 284 283 283 284 284 285 285 285 285 284 285 285 284 284 284 284 284 283 283 283 283 283 283 283 282 282 281 281 281 281 281 282 282 282 283 283 283 284 283 282 282 281 280 280 279 277 277 276 275 274 273 272 271 271 271 271 271
270 272 273 271 270 270 274 275 275 275 277 277 277 277 280 284 286 288 288 286 284 282 280 280 282 284 286 286 286 285 284 282 281 281 282 283 284 285 286 286 286 285 285 285 284 284 284 283 283 283 283 283 282 282 281 281 280 280 280 280 280 280 281 281 282 282 282 282 282 281 281 281 280 280 279 278 278 277 276 275 274 273 273 272 272 272
266 266 268 268 266 264 264 269 273 275 275 274 272 269 268 272 277 281 284 284 284 283 280 278 279 282 286 288 288 288 287 285 284 282 282 282 282 283 283 282 282 283 283 283 283 282 282 282 282 282 281 281 281 280 279 278 277 277 276 276 276 276 276 277 277 278 278 279 279 279 279 279 279 278 278 278 277 277 276 276 275 275 274 273 273 273
264 264 264 264 264 264 263 266 269 272 272 270 269 267 264 263 265 270 275 279 283 285 284 282 280 280 283 287 289 290 288 287 286 286 285 283 282 281 280 280 279 279 280 280 280 279 279 279 279 279 279 278 278 277 276 276 275 274 273 273 273 273 273 274 275 275 276 277 277 277 277 277 277 277 277 276 276 276 275 275 275 274 274 273 273 272
262 263 263 263 263 263 265 268 270 269 267 266 267 268 269 268 268 269 271 275 279 283 285 285 284 282 282 283 285 286 286 285 285 286 286 284 282 280 278 277 277 277 277 277 276 275 276 276 276 275 275 274 274 274 274 273 273 273 272 272 272 272 272 273 273 274 275 275 276 276 276 276 276 276 275 275 275 274 274 274 273 273 273 272 272 271
264 263 260 259 259 261 265 268 270 269 268 266 267 269 275 280 281 281 278 277 278 280 282 283 284 284 283 281 280 280 281 282 284 285 285 284 284 282 280 277 275 274 274 274 273 272 272 273 273 273 272 271 272 272 272 272 272 272 272 272 272 272 272 272 272 273 274 275 275 275 275 275 275 274 274 273 273 273 273 272 272 272 271 271 270 270
276 277 275 273 272 271 272 272 270 268 267 267 269 275 282 286 287 286 282 280 279 280 281 282 283 284 284 282 280 279 279 280 283 286 289 290 289 288 284 279 275 273 271 271 271 272 272 271 272 272 272 271 270 271 271 272 272 272 272 272 272 271 271 271 271 272 273 274 274 274 275 274 273 273 272 271 271 271 271 270 270 270 270 269 269 269
292 291 290 287 284 279 276 274 271 268 267 271 277 283 289 289 288 285 282 281 282 282 281 283 284 284 281 276 274 275 278 284 289 293 296 296 295 293 288 281 277 275 272 270 270 271 272 271 270 270 271 270 269 269 269 270 271 271 271 271 271 271 270 270 270 271 271 272 273 273 273 273 272 271 270 270 269 269 269 268 268 268 268 268 268 268
281 280 279 278 278 277 278 274 269 268 273 280 286 290 291 288 286 282 278 277 277 275 272 275 278 279 279 275 273 276 291 300 302 301 299 296 296 295 289 281 277 277 276 274 272 272 272 271 269 267 266 266 267 267 268 268 269 269 270 270 270 270 270 269 269 270 271 272 272 272 272 272 271 270 269 269 268 268 267 267 267 267 267 267 267 268
266 268 272 275 277 278 277 272 269 271 278 285 289 289 288 285 282 278 273 270 269 268 267 265 265 267 272 278 286 301 324 314 306 301 298 296 296 296 293 282 275 274 276 275 274 272 272 271 270 268 266 266 267 267 268 268 269 269 270 270 270 270 270 270 270 270 271 272 272 272 272 272 271 270 270 269 268 268 267 267 266 266 266 267 267 268
268 269 272 274 274 273 270 268 272 277 284 286 289 290 289 287 282 276 270 268 267 266 267 266 263 260 263 278 295 309 318 313 308 303 299 297 297 298 298 287 277 272 272 272 272 271 270 269 268 268 268 268 268 268 269 269 270 270 270 271 271 271 271 271 271 272 272 273 273 273 273 273 272 271 271 270 269 269 268 268 267 267 267 267 268 268
277 272 268 271 274 275 273 272 275 280 284 286 289 290 289 287 281 273 266 266 265 264 264 263 263 266 279 293 301 306 311 311 307 302 298 296 296 297 298 292 285 278 274 272 271 270 270 269 269 268 267 267 268 268 269 269 270 270 271 271 271 272 272 272 272 273 273 274 274 274 274 273 272 272 271 271 270 270 269 269 269 268 268 268 268 269
286 283 280 282 283 283 280 275 273 275 280 286 289 289 286 281 274 268 263 263 263 263 261 262 273 288 302 301 301 302 306 307 305 301 297 293 292 292 294 292 287 282 279 277 276 274 271 270 269 268 266 266 267 267 268 269 269 270 270 271 271 272 272 272 273 273 274 275 275 274 274 273 272 271 271 271 270 270 270 270 269 269 269 268 268 269
281 282 282 280 277 274 272 270 269 271 277 282 283 280 277 274 271 270 270 272 272 273 274 287 299 304 302 296 294 294 297 297 296 295 293 288 287 287 292 291 288 284 282 282 281 279 276 273 271 268 267 266 266 266 267 267 268 268 269 269 270 271 272 272 273 274 275 275 275 275 274 273 272 271 271 270 270 270 270 270 269 269 269 269 269 270
267 270 274 271 268 265 266 267 268 271 275 278 277 275 275 276 280 287 297 300 302 304 307 306 302 297 292 287 285 285 287 287 287 286 285 282 285 288 293 293 290 287 285 287 289 289 286 281 277 274 271 267 266 266 266 266 266 267 267 268 269 270 272 273 274 276 276 277 276 275 274 272 271 270 270 269 269 269 269 269 269 269 269 269 270 271
261 265 269 268 266 264 266 268 270 272 277 278 280 282 284 289 296 304 311 307 302 300 298 296 292 288 283 281 280 280 282 285 285 282 277 278 281 286 293 294 292 288 286 289 291 293 292 287 282 278 276 268 265 264 264 264 264 265 265 267 268 270 272 274 276 277 277 277 276 275 273 272 271 270 269 269 269 269 269 269 269 269 269 270 270 271
263 265 266 264 263 264 268 270 275 279 285 285 286 289 294 294 291 285 280 281 284 287 288 288 286 284 282 282 280 279 280 282 281 279 278 278 281 285 291 292 291 288 287 289 291 292 291 288 286 282 278 269 264 261 260 260 261 261 263 265 267 270 272 274 276 278 278 277 276 275 273 272 270 269 269 268 268 268 268 268 268 269 269 270 271 272
271 270 269 269 271 274 278 282 286 291 297 299 301 304 306 301 294 288 285 283 285 289 292 289 287 285 285 283 280 279 280 279 279 280 284 286 287 288 289 289 287 286 287 290 291 292 291 290 288 286 280 270 262 258 256 256 256 257 259 262 265 268 271 274 276 277 277 276 275 274 272 271 270 269 268 268 267 267 267 267 268 268 269 270 272 273
275 275 275 277 280 283 287 292 297 303 309 313 318 322 323 321 313 304 298 299 302 302 298 294 291 290 289 285 283 283 288 288 288 289 292 290 287 286 286 286 287 288 291 294 297 299 298 296 294 291 287 278 267 257 252 251 252 253 256 259 263 267 270 273 275 277 276 275 274 273 271 270 269 268 267 267 267 267 267 267 267 268 269 270 272 274
273 275 277 280 283 287 290 296 305 313 316 318 320 322 324 325 316 307 303 310 311 307 297 292 292 292 293 291 291 292 294 290 287 286 286 281 278 278 282 288 294 300 303 303 303 302 299 295 292 291 288 282 271 257 249 248 249 251 254 258 262 265 269 272 274 275 275 275 273 272 270 269 268 266 266 265 265 265 265 266 266 267 269 270 270 272
272 275 278 282 286 290 295 302 308 308 306 306 309 313 319 319 310 304 305 313 310 301 291 289 289 291 292 293 292 291 286 280 277 276 274 270 269 273 283 292 300 307 310 305 300 295 289 285 284 283 284 282 275 263 253 248 248 251 254 258 262 265 269 271 273 274 274 274 273 271 270 268 266 265 264 263 263 263 264 265 266 267 268 268 268 269
276 281 286 293 300 306 313 312 305 297 293 294 298 303 310 306 296 294 300 304 300 294 289 289 289 289 290 292 290 286 278 275 273 274 274 274 277 282 293 296 300 303 306 302 296 290 283 279 277 279 284 290 289 283 269 258 256 257 259 261 264 267 269 271 272 273 273 272 271 270 269 267 265 264 262 262 261 262 262 264 264 265 265 263 263 264
297 304 312 319 323 322 319 309 300 292 289 292 296 301 304 295 286 286 291 294 291 288 287 287 287 287 288 289 288 285 282 286 296 310 307 290 287 290 295 294 294 293 292 288 285 285 285 281 279 287 307 311 309 300 288 277 270 267 266 267 268 268 268 269 269 270 270 269 268 267 266 265 263 262 261 260 260 260 261 262 262 263 262 261 261 263
312 312 309 311 311 308 301 294 288 285 285 290 292 292 290 287 284 283 284 284 283 283 284 285 285 285 283 280 279 280 285 292 299 303 303 291 285 284 285 283 282 281 277 269 271 279 289 294 304 317 323 315 309 303 296 286 278 271 267 266 266 266 265 265 265 265 264 264 263 262 261 261 260 259 259 258 258 259 259 260 261 261 262 263 264 266
294 287 285 288 288 285 279 276 275 276 278 280 279 276 275 275 276 277 277 276 276 277 280 282 283 282 280 277 274 275 278 284 289 292 292 285 280 278 277 274 274 274 273 268 271 279 288 295 300 302 302 299 298 296 293 285 278 272 268 265 264 263 262 261 261 260 258 258 258 257 257 257 258 257 257 258 258 258 259 260 261 261 262 263 265 268
293 291 290 288 284 278 272 269 269 269 271 270 267 265 262 263 267 271 274 273 271 271 272 275 278 279 280 278 276 275 276 280 286 290 293 288 285 286 288 285 285 285 285 281 279 280 280 281 285 289 291 291 289 288 286 283 281 278 274 271 269 267 265 261 259 257 255 254 253 254 254 256 256 256 256 257 258 259 260 260 261 262 262 262 264 268
296 294 293 288 282 276 272 268 266 264 263 260 260 260 263 265 268 271 274 274 272 269 267 266 268 271 275 278 279 281 282 286 293 298 300 294 292 292 292 289 290 291 289 285 282 280 277 277 279 282 286 288 288 286 285 285 285 285 280 273 270 269 268 265 263 262 260 257 254 252 250 251 251 252 253 255 256 258 260 261 261 262 263 264 267 270
295 292 289 282 276 271 269 268 267 266 267 265 263 264 268 271 274 274 274 275 275 273 270 265 263 263 266 271 276 280 284 289 293 295 294 289 285 283 283 283 284 285 284 282 281 280 280 280 279 279 281 283 284 285 285 285 284 280 275 269 266 265 265 265 265 265 265 262 257 253 248 246 244 245 246 250 254 257 260 262 263 264 267 269 273 276
290 287 283 276 270 267 269 269 271 274 280 282 282 282 282 281 281 280 279 276 274 273 273 271 268 265 264 267 269 273 279 283 285 284 282 279 277 275 275 277 279 280 280 281 283 284 283 282 281 279 277 277 279 283 287 287 285 282 279 276 274 272 269 266 262 261 263 262 260 257 251 246 242 240 241 246 251 256 261 264 265 268 271 275 278 281
288 285 283 276 270 268 273 279 285 290 295 298 298 297 294 291 288 286 283 277 273 271 271 270 268 266 264 264 264 266 269 271 274 274 273 272 271 270 271 274 275 275 276 280 284 286 285 283 282 281 279 276 277 279 283 286 286 285 284 282 279 275 271 265 259 255 255 258 260 260 257 250 243 239 237 239 242 247 255 258 261 265 272 277 281 284
287 284 283 283 285 289 294 297 299 300 301 299 299 298 297 294 291 287 283 278 273 269 267 267 267 266 263 262 263 264 265 266 268 268 268 266 266 267 269 272 274 275 275 277 278 279 278 278 278 278 279 279 278 278 277 278 279 281 283 281 275 266 258 252 247 244 245 250 255 258 258 252 243 234 227 223 224 231 243 248 251 255 266 279 286 289
286 286 289 296 303 309 308 303 300 299 296 294 295 296 297 297 296 291 284 279 276 275 273 272 271 270 267 265 265 265 265 265 265 266 265 262 261 263 267 269 271 273 272 270 269 269 269 270 271 272 274 276 278 279 277 275 275 277 279 280 276 268 260 250 242 236 236 240 247 252 254 248 237 226 219 216 220 230 241 248 254 262 271 286 295 297
288 293 299 306 307 303 296 294 293 291 289 290 293 297 299 300 299 295 289 286 284 283 285 283 279 275 272 268 266 265 263 262 262 263 262 259 257 258 261 264 267 268 268 265 262 261 260 263 266 268 269 272 275 277 278 279 280 281 280 278 279 280 278 266 254 241 232 238 242 247 250 245 235 223 218 218 222 230 248 261 268 272 274 273 278 286
295 301 305 304 300 295 291 289 288 287 288 292 298 302 303 301 300 299 298 297 295 292 289 288 287 285 284 280 275 269 264 261 260 260 260 258 255 253 255 258 261 264 265 263 260 257 254 256 258 262 265 268 272 275 278 280 282 283 283 282 284 286 284 275 263 244 230 239 243 246 248 244 236 225 217 216 214 218 253 263 265 264 264 259 257 261
302 302 300 298 295 291 289 288 288 291 299 305 308 308 304 298 296 296 297 297 297 297 296 295 294 294 293 291 289 285 277 267 262 260 260 257 254 252 252 254 256 258 260 262 262 260 256 254 254 256 259 264 268 273 277 280 281 281 281 284 287 290 289 279 270 233 228 237 237 236 236 237 232 223 208 203 198 200 233 252 257 258 260 261 260 261
296 294 294 292 290 287 286 288 294 302 309 310 308 303 297 293 292 292 292 292 294 296 298 299 297 294 292 292 295 297 298 293 283 275 271 268 263 259 258 257 256 255 255 257 259 261 261 257 255 255 257 261 265 269 272 275 277 278 278 280 281 281 279 283 283 262 229 236 233 227 225 223 213 193 180 193 199 204 211 231 241 248 253 255 260 263
290 291 290 289 289 290 292 299 306 311 311 306 300 296 293 291 291 291 290 290 293 297 302 304 302 299 296 300 305 310 312 312 310 304 292 284 279 276 269 265 262 259 256 254 254 256 260 260 261 261 261 262 263 265 268 271 274 275 276 277 276 275 275 280 280 271 243 236 226 213 203 195 188 184 195 207 208 202 206 226 237 244 249 251 256 261
289 289 288 287 290 294 302 308 311 309 302 296 291 289 288 287 286 285 286 290 298 305 312 313 310 307 306 311 315 317 316 315 313 311 306 296 288 281 272 266 265 263 260 257 254 253 254 258 262 265 266 263 261 260 261 264 268 271 273 275 276 277 278 280 278 267 243 230 208 180 164 170 177 188 203 210 205 198 200 229 252 268 279 276 271 268
291 291 291 293 297 302 306 306 304 300 294 290 287 284 283 282 283 285 291 303 313 318 320 317 311 308 307 311 313 313 312 311 311 311 311 309 306 300 286 276 270 266 262 258 255 252 251 252 253 256 257 258 258 258 258 258 260 264 268 272 276 279 281 283 281 266 228 213 175 155 154 165 174 183 190 183 179 176 212 244 277 287 290 286 283 281
295 296 299 302 304 304 302 300 296 292 288 286 284 283 282 284 290 300 313 325 327 324 318 314 310 307 305 306 306 306 306 307 309 312 314 316 317 317 314 306 295 284 272 261 254 250 248 246 245 245 246 249 253 257 259 258 258 259 263 269 275 279 282 284 287 205 192 175 155 155 165 170 170 164 155 147 149 87 24 9 342 304 277 280 284 288
297 297 297 298 298 297 296 296 294 290 288 289 289 289 287 296 314 328 336 334 329 323 317 314 312 310 309 308 306 305 305 307 309 313 317 321 325 326 326 324 320 314 305 287 267 252 245 242 239 237 236 239 245 252 258 259 260 260 263 268 273 277 279 280 272 140 151 149 152 159 174 161 140 132 138 157 171 178 22 354 329 304 279 278 283 289
293 290 289 289 289 290 293 293 292 291 291 292 291 290 292 315 346 351 342 334 328 324 321 317 315 313 311 310 311 312 313 314 315 318 323 328 331 332 331 331 331 329 325 321 312 291 263 247 236 230 228 229 233 241 252 258 260 261 260 263 267 271 271 267 217 144 155 147 144 143 139 110 100 110 133 163 166 137 30 342 323 311 306 302 299 297
290 287 283 280 281 284 288 291 292 292 292 291 289 289 299 336 352 348 339 334 330 327 323 319 315 312 309 311 314 318 321 320 320 322 328 332 333 333 333 335 336 335 333 332 332 329 319 307 279 242 225 224 227 234 250 260 264 263 257 255 255 257 255 236 145 130 141 129 126 126 127 124 124 130 146 154 149 130 49 356 347 345 345 339 326 320